| time (UTC) | temp F | wind direction | speed knots | gust knots | rain 1hr in | rain 24hr in | rain mn in | humidity % | barometer mb |
| 20260904133055 | 66 | 235 | 8.7 | 23.5 | 0.00 | 0.09 | 0.09 | 92 | 1012.1 |
| 20260904132554 | 66 | 238 | 8.7 | 18.2 | 0.00 | 0.09 | 0.09 | 93 | 1012.2 |
| 20260904132053 | 66 | 214 | 9.6 | 14.8 | 0.00 | 0.09 | 0.09 | 94 | 1012.1 |
| 20260904131554 | 66 | 228 | 8.7 | 17.4 | 0.00 | 0.09 | 0.09 | 94 | 1012.2 |
| 20260904131546 | 66 | 259 | 8.7 | 17.4 | 0.01 | 0.09 | 0.09 | 94 | 1012.2 |
| 20260904131040 | 66 | 230 | 7.8 | 15.6 | 0.01 | 0.09 | 0.09 | 95 | 1012.0 |
| 20260904130051 | 66 | 222 | 7.0 | 14.8 | 0.01 | 0.09 | 0.09 | 95 | 1012.2 |
| 20260904125553 | 66 | 242 | 6.1 | 12.2 | 0.01 | 0.09 | 0.09 | 95 | 1012.1 |
| 20260904125054 | 66 | 256 | 6.1 | 12.2 | 0.02 | 0.09 | 0.09 | 95 | 1012.1 |
| 20260904124555 | 66 | 262 | 7.8 | 16.5 | 0.07 | 0.09 | 0.09 | 95 | 1012.1 |
| 20260904124053 | 66 | 231 | 9.6 | 16.5 | 0.07 | 0.09 | 0.09 | 95 | 1011.9 |
| 20260904123553 | 66 | 239 | 9.6 | 17.4 | 0.07 | 0.09 | 0.09 | 95 | 1012.0 |
| 20260904123056 | 66 | 200 | 10.4 | 20.0 | 0.07 | 0.09 | 0.09 | 95 | 1011.9 |
| 20260904122555 | 66 | 256 | 10.4 | 20.0 | 0.08 | 0.09 | 0.09 | 94 | 1011.9 |
| 20260904122054 | 66 | 231 | 9.6 | 20.9 | 0.09 | 0.09 | 0.09 | 95 | 1011.8 |
| 20260904121552 | 66 | 288 | 10.4 | 20.9 | 0.09 | 0.09 | 0.08 | 94 | 1011.8 |
| 20260904121055 | 66 | 231 | 9.6 | 17.4 | 0.08 | 0.08 | 0.08 | 94 | 1011.8 |
| 20260904121043 | 66 | 250 | 7.8 | 17.4 | 0.08 | 0.08 | 0.08 | 94 | 1011.7 |
| 20260904120052 | 66 | 247 | 7.8 | 16.5 | 0.08 | 0.08 | 0.08 | 93 | 1011.6 |
| 20260904115548 | 67 | 281 | 8.7 | 16.5 | 0.08 | 0.08 | 0.08 | 92 | 1011.6 |
| 20260904115049 | 67 | 281 | 7.0 | 13.9 | 0.07 | 0.07 | 0.06 | 91 | 1011.5 |
| 20260904114550 | 68 | 278 | 7.0 | 19.1 | 0.02 | 0.02 | 0.02 | 91 | 1011.2 |
| 20260904114049 | 69 | 274 | 9.6 | 19.1 | 0.02 | 0.02 | 0.02 | 92 | 1011.3 |
| 20260904113553 | 69 | 229 | 10.4 | 22.6 | 0.02 | 0.02 | 0.02 | 92 | 1011.0 |
| 20260904113542 | 70 | 239 | 11.3 | 22.6 | 0.02 | 0.02 | 0.02 | 91 | 1011.1 |
| 20260904112549 | 70 | 225 | 11.3 | 21.7 | 0.01 | 0.01 | 0.01 | 90 | 1011.1 |
| 20260904112048 | 70 | 237 | 13.0 | 30.4 | 0.00 | 0.00 | 0.00 | 89 | 1011.0 |
| 20260904111548 | 70 | 249 | 13.0 | 30.4 | 0.00 | 0.00 | 0.00 | 89 | 1011.0 |
| 20260904111541 | 71 | 218 | 12.2 | 27.8 | 0.00 | 0.01 | 0.00 | 87 | 1010.8 |
| 20260904110600 | 71 | 139 | 13.0 | 26.9 | 0.00 | 0.01 | 0.00 | 86 | 1010.9 |
| 20260904110055 | 72 | 277 | 13.9 | 28.7 | 0.00 | 0.01 | 0.00 | 84 | 1010.8 |
| 20260904110044 | 72 | 179 | 13.0 | 26.9 | 0.00 | 0.01 | 0.00 | 85 | 1011.0 |
| 20260904105037 | 72 | 48 | 13.9 | 28.7 | 0.00 | 0.01 | 0.00 | 84 | 1010.9 |
| 20260904104535 | 72 | 239 | 13.9 | 26.1 | 0.00 | 0.01 | 0.00 | 85 | 1011.0 |
| 20260904104033 | 72 | 229 | 13.0 | 26.1 | 0.00 | 0.01 | 0.00 | 85 | 1011.0 |
| 20260904103535 | 72 | 238 | 13.9 | 26.1 | 0.00 | 0.01 | 0.00 | 85 | 1010.9 |
| 20260904103031 | 71 | 206 | 14.8 | 30.4 | 0.00 | 0.01 | 0.00 | 85 | 1010.9 |
| 20260904102532 | 71 | 194 | 13.9 | 30.4 | 0.00 | 0.01 | 0.00 | 85 | 1010.9 |
| 20260904102035 | 71 | 229 | 13.9 | 26.9 | 0.00 | 0.01 | 0.00 | 85 | 1011.0 |
| 20260904101552 | 71 | 241 | 14.8 | 28.7 | 0.00 | 0.01 | 0.00 | 87 | 1011.3 |
| 20260904101533 | 71 | 218 | 13.9 | 24.3 | 0.00 | 0.01 | 0.00 | 86 | 1011.0 |
| 20260904100530 | 71 | 214 | 13.9 | 29.5 | 0.00 | 0.01 | 0.00 | 87 | 1011.0 |
| 20260904100033 | 71 | 253 | 11.3 | 29.5 | 0.00 | 0.01 | 0.00 | 88 | 1011.0 |
| 20260904095531 | 71 | 263 | 9.6 | 21.7 | 0.00 | 0.01 | 0.00 | 88 | 1011.0 |
| 20260904095033 | 71 | 216 | 9.6 | 18.2 | 0.00 | 0.01 | 0.00 | 88 | 1011.0 |
| 20260904094532 | 71 | 183 | 9.6 | 18.2 | 0.00 | 0.01 | 0.00 | 88 | 1010.9 |
| 20260904094036 | 71 | 197 | 9.6 | 19.1 | 0.00 | 0.01 | 0.00 | 88 | 1011.0 |
| 20260904094025 | 71 | 216 | 9.6 | 19.1 | 0.00 | 0.01 | 0.00 | 88 | 1011.0 |
| 20260904093527 | 71 | 241 | 8.7 | 18.2 | 0.00 | 0.01 | 0.00 | 89 | 1011.0 |
| 20260904092536 | 71 | 210 | 8.7 | 16.5 | 0.00 | 0.01 | 0.00 | 89 | 1011.1 |
| 20260904092030 | 71 | 236 | 8.7 | 16.5 | 0.00 | 0.01 | 0.00 | 89 | 1011.1 |
| 20260904091530 | 71 | 214 | 7.8 | 21.7 | 0.00 | 0.01 | 0.00 | 89 | 1011.1 |
| 20260904091033 | 70 | 256 | 9.6 | 21.7 | 0.00 | 0.01 | 0.00 | 90 | 1011.1 |
| 20260904090622 | 70 | 245 | 7.8 | 17.4 | 0.00 | 0.01 | 0.00 | 90 | 1011.1 |
| 20260904090547 | 70 | 185 | 8.7 | 20.0 | 0.00 | 0.01 | 0.00 | 89 | 1011.2 |
| 20260904090038 | 70 | 208 | 8.7 | 17.4 | 0.00 | 0.01 | 0.00 | 90 | 1011.1 |
| 20260904085035 | 70 | 215 | 8.7 | 18.2 | 0.00 | 0.01 | 0.00 | 90 | 1010.9 |
| 20260904085026 | 70 | 200 | 8.7 | 18.2 | 0.00 | 0.01 | 0.00 | 90 | 1010.9 |
| 20260904084031 | 70 | 229 | 8.7 | 17.4 | 0.00 | 0.01 | 0.00 | 90 | 1011.0 |
| 20260904084020 | 70 | 202 | 9.6 | 25.2 | 0.00 | 0.01 | 0.00 | 89 | 1011.0 |
| 20260904083030 | 70 | 185 | 8.7 | 25.2 | 0.00 | 0.01 | 0.00 | 89 | 1011.0 |
| 20260904082537 | 70 | 185 | 8.7 | 24.3 | 0.00 | 0.01 | 0.00 | 89 | 1010.9 |
| 20260904082032 | 70 | 231 | 9.6 | 26.1 | 0.00 | 0.01 | 0.00 | 89 | 1011.0 |
| 20260904081533 | 70 | 235 | 9.6 | 26.1 | 0.00 | 0.01 | 0.00 | 89 | 1010.9 |
| 20260904081031 | 70 | 224 | 8.7 | 15.6 | 0.00 | 0.01 | 0.00 | 89 | 1010.9 |
| 20260904080532 | 70 | 251 | 9.6 | 21.7 | 0.00 | 0.02 | 0.00 | 89 | 1011.0 |
| 20260904080027 | 70 | 234 | 8.7 | 21.7 | 0.00 | 0.02 | 0.00 | 89 | 1011.0 |
| 20260904075528 | 70 | 241 | 8.7 | 21.7 | 0.00 | 0.02 | 0.00 | 89 | 1010.9 |
| 20260904075027 | 70 | 235 | 10.4 | 22.6 | 0.00 | 0.02 | 0.00 | 89 | 1010.9 |
| 20260904074527 | 70 | 251 | 10.4 | 22.6 | 0.00 | 0.02 | 0.00 | 89 | 1011.0 |
| 20260904074028 | 70 | 196 | 10.4 | 20.0 | 0.00 | 0.02 | 0.00 | 89 | 1011.0 |
| 20260904073939 | 70 | 236 | 8.7 | 22.6 | 0.00 | 0.02 | 0.00 | 90 | 1011.2 |
| 20260904073603 | 70 | 209 | 11.3 | 23.5 | 0.00 | 0.02 | 0.00 | 89 | 1011.1 |
| 20260904073109 | 70 | 204 | 11.3 | 25.2 | 0.00 | 0.02 | 0.00 | 89 | 1011.0 |
| 20260904072622 | 70 | 235 | 9.6 | 25.2 | 0.00 | 0.02 | 0.00 | 89 | 1011.2 |
| 20260904072146 | 71 | 164 | 8.7 | 20.9 | 0.00 | 0.02 | 0.00 | 89 | 1011.1 |
| 20260904071027 | 70 | 229 | 9.6 | 22.6 | 0.00 | 0.02 | 0.00 | 90 | 1011.0 |
| 20260904070545 | 70 | 172 | 10.4 | 23.5 | 0.00 | 0.03 | 0.00 | 90 | 1011.1 |
| 20260904070029 | 70 | 203 | 9.6 | 23.5 | 0.00 | 0.03 | 0.00 | 90 | 1011.1 |
| 20260904065528 | 70 | 237 | 9.6 | 26.9 | 0.00 | 0.03 | 0.00 | 90 | 1011.1 |
| 20260904065025 | 70 | 164 | 10.4 | 26.9 | 0.00 | 0.03 | 0.00 | 90 | 1011.1 |
| 20260904064527 | 70 | 185 | 9.6 | 22.6 | 0.00 | 0.03 | 0.00 | 90 | 1011.2 |
| 20260904064025 | 70 | 247 | 9.6 | 18.2 | 0.00 | 0.03 | 0.00 | 90 | 1011.2 |
| 20260904063526 | 70 | 201 | 8.7 | 18.2 | 0.00 | 0.03 | 0.00 | 90 | 1011.2 |
| 20260904063024 | 70 | 233 | 8.7 | 18.2 | 0.00 | 0.04 | 0.00 | 90 | 1011.3 |
| 20260904062526 | 70 | 191 | 8.7 | 21.7 | 0.00 | 0.04 | 0.00 | 90 | 1011.4 |
| 20260904062515 | 70 | 194 | 9.6 | 22.6 | 0.00 | 0.04 | 0.00 | 89 | 1011.5 |
| 20260904061525 | 70 | 226 | 8.7 | 22.6 | 0.00 | 0.04 | 0.00 | 89 | 1011.6 |
| 20260904061022 | 69 | 168 | 7.8 | 15.6 | 0.00 | 0.04 | 0.00 | 89 | 1011.5 |
| 20260904061004 | 69 | 233 | 8.7 | 15.6 | 0.00 | 0.04 | 0.00 | 89 | 1011.7 |
| 20260904060023 | 69 | 241 | 7.8 | 16.5 | 0.00 | 0.05 | 0.00 | 89 | 1011.7 |
| 20260904055521 | 69 | 210 | 7.8 | 18.2 | 0.00 | 0.05 | 0.00 | 89 | 1011.6 |
| 20260904055022 | 69 | 294 | 7.8 | 18.2 | 0.00 | 0.05 | 0.00 | 90 | 1011.5 |
| 20260904054524 | 69 | 237 | 7.0 | 14.8 | 0.00 | 0.06 | 0.00 | 90 | 1011.7 |
| 20260904054024 | 69 | 204 | 7.0 | 14.8 | 0.00 | 0.06 | 0.00 | 90 | 1011.7 |
| 20260904053523 | 69 | 193 | 7.8 | 15.6 | 0.00 | 0.06 | 0.00 | 90 | 1011.9 |
| 20260904053022 | 69 | 177 | 7.8 | 16.5 | 0.00 | 0.06 | 0.00 | 90 | 1011.9 |
| 20260904052523 | 69 | 229 | 8.7 | 17.4 | 0.00 | 0.06 | 0.00 | 90 | 1012.0 |
| 20260904052024 | 69 | 213 | 7.8 | 23.5 | 0.00 | 0.06 | 0.00 | 90 | 1012.1 |
| 20260904051525 | 69 | 272 | 6.1 | 23.5 | 0.00 | 0.06 | 0.00 | 90 | 1012.1 |
| 20260904051139 | 69 | 217 | 8.7 | 18.2 | 0.00 | 0.06 | 0.00 | 89 | 1012.2 |
| 20260904051047 | 69 | 210 | 7.0 | 15.6 | 0.00 | 0.06 | 0.00 | 89 | 1012.3 |
| 20260904050021 | 69 | 222 | 9.6 | 18.2 | 0.00 | 0.06 | 0.00 | 89 | 1012.5 |
| 20260904045655 | 69 | 204 | 8.7 | 23.5 | 0.00 | 0.06 | 0.00 | 89 | 1012.6 |
| 20260904045552 | 69 | 241 | 10.4 | 23.5 | 0.00 | 0.06 | 0.00 | 89 | 1012.5 |
| 20260904044634 | 69 | 237 | 7.8 | 23.5 | 0.00 | 0.06 | 0.00 | 89 | 1012.7 |
| 20260904044544 | 69 | 197 | 7.8 | 20.0 | 0.00 | 0.06 | 0.00 | 89 | 1012.7 |
| 20260904043522 | 69 | 215 | 8.7 | 23.5 | 0.00 | 0.06 | 0.00 | 89 | 1012.7 |
| 20260904043022 | 69 | 210 | 7.8 | 15.6 | 0.00 | 0.06 | 0.00 | 89 | 1012.8 |
| 20260904042519 | 69 | 179 | 7.0 | 15.6 | 0.00 | 0.06 | 0.00 | 89 | 1012.8 |
| 20260904042017 | 69 | 255 | 7.8 | 15.6 | 0.00 | 0.06 | 0.00 | 89 | 1013.0 |
| 20260904041957 | 69 | 197 | 7.0 | 15.6 | 0.00 | 0.06 | 0.00 | 89 | 1013.0 |
| 20260904041018 | 69 | 182 | 7.8 | 15.6 | 0.00 | 0.06 | 0.00 | 89 | 1013.1 |
| 20260904040518 | 69 | 216 | 8.7 | 20.0 | 0.00 | 0.06 | 0.00 | 89 | 1013.1 |
| 20260904040019 | 69 | 236 | 7.8 | 20.0 | 0.00 | 0.06 | 0.00 | 89 | 1013.2 |
| 20260904035522 | 69 | 207 | 7.8 | 17.4 | 0.00 | 0.06 | 0.00 | 89 | 1013.3 |
| 20260904035018 | 69 | 214 | 8.7 | 18.2 | 0.00 | 0.06 | 0.00 | 89 | 1013.3 |
| 20260904034521 | 69 | 258 | 8.7 | 18.2 | 0.00 | 0.06 | 0.00 | 89 | 1013.2 |
| 20260904034018 | 69 | 208 | 7.8 | 18.2 | 0.00 | 0.06 | 0.00 | 89 | 1013.2 |
| 20260904033518 | 69 | 245 | 8.7 | 16.5 | 0.00 | 0.06 | 0.00 | 89 | 1013.3 |
| 20260904033017 | 69 | 178 | 8.7 | 16.5 | 0.00 | 0.06 | 0.00 | 89 | 1013.3 |
| 20260904032518 | 69 | 194 | 7.0 | 16.5 | 0.00 | 0.06 | 0.00 | 89 | 1013.4 |
| 20260904032015 | 69 | 218 | 7.8 | 20.0 | 0.00 | 0.06 | 0.00 | 89 | 1013.4 |
| 20260904031515 | 69 | 164 | 7.8 | 20.0 | 0.00 | 0.06 | 0.00 | 89 | 1013.4 |
| 20260904031016 | 69 | 172 | 7.0 | 13.9 | 0.00 | 0.06 | 0.00 | 89 | 1013.5 |
| 20260904030515 | 69 | 243 | 7.8 | 17.4 | 0.00 | 0.06 | 0.00 | 89 | 1013.5 |
| 20260904030504 | 69 | 177 | 7.0 | 17.4 | 0.00 | 0.06 | 0.00 | 89 | 1013.6 |
| 20260904025519 | 69 | 216 | 7.0 | 17.4 | 0.00 | 0.06 | 0.00 | 90 | 1013.6 |
| 20260904025010 | 69 | 223 | 7.0 | 17.4 | 0.00 | 0.06 | 0.00 | 90 | 1013.7 |
| 20260904024509 | 69 | 227 | 7.8 | 16.5 | 0.00 | 0.06 | 0.00 | 90 | 1013.7 |
| 20260904024013 | 69 | 204 | 7.8 | 16.5 | 0.00 | 0.06 | 0.00 | 90 | 1013.7 |
| 20260904023950 | 69 | 214 | 7.0 | 13.9 | 0.00 | 0.06 | 0.00 | 90 | 1013.9 |
| 20260904023011 | 69 | 239 | 7.8 | 14.8 | 0.00 | 0.06 | 0.00 | 90 | 1013.8 |
| 20260904022509 | 69 | 205 | 7.8 | 14.8 | 0.00 | 0.06 | 0.00 | 90 | 1013.9 |
| 20260904022033 | 69 | 197 | 7.0 | 16.5 | 0.00 | 0.06 | 0.00 | 91 | 1014.0 |
| 20260904022016 | 69 | 225 | 7.0 | 13.9 | 0.00 | 0.06 | 0.00 | 90 | 1013.9 |
| 20260904021009 | 69 | 244 | 6.1 | 16.5 | 0.00 | 0.06 | 0.00 | 91 | 1013.9 |
| 20260904020509 | 69 | 205 | 5.2 | 13.9 | 0.00 | 0.06 | 0.00 | 91 | 1014.1 |
| 20260904020021 | 69 | 204 | 6.1 | 15.6 | 0.00 | 0.06 | 0.00 | 91 | 1014.2 |
| 20260904015503 | 69 | 163 | 6.1 | 16.5 | 0.00 | 0.06 | 0.00 | 91 | 1014.3 |
| 20260904015003 | 69 | 231 | 6.1 | 16.5 | 0.00 | 0.06 | 0.00 | 91 | 1014.3 |
| 20260904014502 | 69 | 229 | 5.2 | 14.8 | 0.00 | 0.06 | 0.00 | 92 | 1014.3 |
| 20260904014006 | 69 | 270 | 6.1 | 13.0 | 0.00 | 0.06 | 0.00 | 92 | 1014.4 |
| 20260904013503 | 69 | 220 | 7.0 | 13.0 | 0.00 | 0.06 | 0.00 | 92 | 1014.4 |
| 20260904013003 | 69 | 260 | 5.2 | 12.2 | 0.00 | 0.06 | 0.00 | 92 | 1014.5 |
| 20260904012509 | 69 | 215 | 4.3 | 10.4 | 0.00 | 0.06 | 0.00 | 92 | 1014.5 |
| 20260904012021 | 69 | 232 | 6.1 | 13.0 | 0.00 | 0.06 | 0.00 | 92 | 1014.7 |
| 20260904012005 | 69 | 229 | 5.2 | 10.4 | 0.00 | 0.06 | 0.00 | 92 | 1014.6 |
| 20260904011456 | 69 | 229 | 7.0 | 13.0 | 0.00 | 0.06 | 0.00 | 91 | 1015.0 |
| 20260904011446 | 69 | 207 | 7.0 | 13.9 | 0.00 | 0.06 | 0.00 | 92 | 1014.9 |
| 20260904011207 | 69 | 219 | 7.0 | 13.9 | 0.00 | 0.06 | 0.00 | 92 | 1014.8 |
| 20260904005957 | 69 | 125 | 7.8 | 14.8 | 0.00 | 0.06 | 0.00 | 91 | 1015.0 |
| 20260904005005 | 69 | 250 | 7.8 | 17.4 | 0.00 | 0.06 | 0.00 | 91 | 1015.0 |
| 20260904004506 | 69 | 216 | 7.0 | 17.4 | 0.00 | 0.06 | 0.00 | 91 | 1015.1 |
| 20260904004032 | 69 | 222 | 6.1 | 13.9 | 0.00 | 0.06 | 0.00 | 90 | 1015.3 |
| 20260904004022 | 69 | 224 | 7.0 | 13.9 | 0.00 | 0.06 | 0.00 | 90 | 1015.3 |
| 20260904004006 | 69 | 199 | 6.1 | 13.0 | 0.00 | 0.06 | 0.00 | 90 | 1015.1 |
| 20260904003516 | 69 | 201 | 6.1 | 13.0 | 0.00 | 0.06 | 0.00 | 90 | 1015.2 |
| 20260904002006 | 69 | 217 | 6.1 | 13.9 | 0.00 | 0.06 | 0.00 | 90 | 1015.3 |
| 20260904001606 | 69 | 206 | 6.1 | 15.6 | 0.00 | 0.06 | 0.00 | 90 | 1015.4 |
| 20260904001524 | 69 | 193 | 7.0 | 13.9 | 0.00 | 0.06 | 0.00 | 90 | 1015.4 |
| 20260904000504 | 70 | 218 | 5.2 | 15.6 | 0.00 | 0.06 | 0.00 | 90 | 1015.4 |
| 20260904000012 | 70 | 213 | 5.2 | 12.2 | 0.00 | 0.06 | 0.00 | 90 | 1015.4 |
| 20260903235504 | 70 | 243 | 4.3 | 12.2 | 0.00 | 0.06 | 0.00 | 90 | 1015.5 |
| 20260903235002 | 70 | 189 | 5.2 | 9.6 | 0.00 | 0.06 | 0.00 | 90 | 1015.6 |
| 20260903234507 | 70 | 203 | 5.2 | 11.3 | 0.00 | 0.06 | 0.00 | 90 | 1015.6 |
| 20260903234004 | 70 | 191 | 5.2 | 11.3 | 0.00 | 0.06 | 0.00 | 90 | 1015.7 |
| 20260903233503 | 70 | 266 | 5.2 | 12.2 | 0.00 | 0.06 | 0.00 | 90 | 1015.8 |
| 20260903233004 | 69 | 200 | 6.1 | 13.9 | 0.00 | 0.06 | 0.00 | 90 | 1015.7 |
| 20260903232626 | 70 | 223 | 4.3 | 10.4 | 0.00 | 0.06 | 0.00 | 90 | 1015.7 |
| 20260903232529 | 69 | 203 | 5.2 | 13.9 | 0.00 | 0.06 | 0.00 | 90 | 1015.6 |
| 20260903231504 | 69 | 185 | 5.2 | 10.4 | 0.00 | 0.06 | 0.00 | 90 | 1015.9 |
| 20260903231002 | 70 | 221 | 6.1 | 12.2 | 0.00 | 0.06 | 0.00 | 90 | 1016.0 |
| 20260903230501 | 70 | 235 | 6.1 | 12.2 | 0.00 | 0.06 | 0.00 | 90 | 1016.0 |
| 20260903225958 | 70 | 219 | 6.1 | 11.3 | 0.00 | 0.06 | 0.00 | 90 | 1016.0 |
| 20260903225500 | 69 | 204 | 6.1 | 14.8 | 0.00 | 0.06 | 0.00 | 90 | 1016.0 |
| 20260903224956 | 69 | 201 | 6.1 | 14.8 | 0.00 | 0.06 | 0.00 | 90 | 1016.0 |
| 20260903224501 | 69 | 190 | 6.1 | 12.2 | 0.00 | 0.06 | 0.00 | 90 | 1016.1 |
| 20260903223957 | 69 | 204 | 5.2 | 13.9 | 0.00 | 0.06 | 0.00 | 90 | 1016.2 |
| 20260903223459 | 69 | 183 | 4.3 | 13.9 | 0.00 | 0.06 | 0.00 | 90 | 1016.2 |
| 20260903222959 | 69 | 210 | 4.3 | 9.6 | 0.00 | 0.06 | 0.00 | 90 | 1016.3 |
| 20260903222500 | 70 | 238 | 3.5 | 9.6 | 0.00 | 0.06 | 0.00 | 90 | 1016.5 |
| 20260903222000 | 69 | 208 | 3.5 | 7.8 | 0.00 | 0.06 | 0.00 | 90 | 1016.4 |
| 20260903221500 | 70 | 227 | 4.3 | 9.6 | 0.00 | 0.06 | 0.00 | 90 | 1016.5 |
| 20260903221453 | 70 | 214 | 5.2 | 11.3 | 0.00 | 0.06 | 0.00 | 90 | 1016.6 |
| 20260903220502 | 70 | 231 | 6.1 | 11.3 | 0.00 | 0.06 | 0.00 | 90 | 1016.5 |
| 20260903215957 | 70 | 218 | 5.2 | 9.6 | 0.00 | 0.06 | 0.06 | 90 | 1016.5 |
| 20260903215946 | 70 | 166 | 5.2 | 11.3 | 0.00 | 0.06 | 0.06 | 90 | 1016.6 |
| 20260903214957 | 70 | 220 | 6.1 | 12.2 | 0.00 | 0.06 | 0.06 | 90 | 1016.7 |
| 20260903214450 | 69 | 158 | 7.0 | 14.8 | 0.00 | 0.06 | 0.06 | 90 | 1016.7 |
| 20260903213945 | 69 | 181 | 6.1 | 14.8 | 0.00 | 0.06 | 0.06 | 90 | 1016.8 |
| 20260903213446 | 69 | 207 | 4.3 | 11.3 | 0.00 | 0.06 | 0.06 | 90 | 1016.8 |
| 20260903212947 | 69 | 159 | 4.3 | 11.3 | 0.00 | 0.06 | 0.06 | 90 | 1016.9 |
| 20260903212446 | 69 | 237 | 4.3 | 11.3 | 0.00 | 0.06 | 0.06 | 90 | 1016.9 |
| 20260903211947 | 69 | 235 | 5.2 | 13.0 | 0.00 | 0.06 | 0.06 | 90 | 1016.9 |
| 20260903211532 | 69 | 241 | 5.2 | 12.2 | 0.00 | 0.06 | 0.06 | 90 | 1016.8 |
| 20260903211522 | 69 | 220 | 4.3 | 12.2 | 0.00 | 0.06 | 0.06 | 91 | 1016.9 |
| 20260903211454 | 69 | 177 | 5.2 | 13.0 | 0.00 | 0.06 | 0.06 | 90 | 1016.7 |
| 20260903210441 | 69 | 152 | 4.3 | 8.7 | 0.00 | 0.06 | 0.06 | 91 | 1017.0 |
| 20260903205448 | 69 | 216 | 5.2 | 13.9 | 0.00 | 0.06 | 0.06 | 91 | 1017.2 |
| 20260903204947 | 69 | 231 | 6.1 | 13.9 | 0.00 | 0.06 | 0.06 | 91 | 1017.3 |
| 20260903204446 | 69 | 197 | 5.2 | 9.6 | 0.00 | 0.06 | 0.06 | 92 | 1017.4 |
| 20260903203947 | 69 | 225 | 4.3 | 7.8 | 0.00 | 0.06 | 0.06 | 92 | 1017.4 |
| 20260903203453 | 69 | 212 | 3.5 | 7.8 | 0.00 | 0.06 | 0.06 | 92 | 1017.3 |
| 20260903203442 | 69 | 229 | 3.5 | 7.8 | 0.00 | 0.06 | 0.06 | 92 | 1017.5 |
| 20260903202437 | 69 | 189 | 3.5 | 7.8 | 0.00 | 0.06 | 0.06 | 92 | 1017.3 |
| 20260903201940 | 69 | 211 | 3.5 | 7.0 | 0.00 | 0.06 | 0.06 | 92 | 1017.4 |
| 20260903201438 | 69 | 215 | 3.5 | 8.7 | 0.00 | 0.06 | 0.06 | 91 | 1017.4 |
| 20260903200934 | 69 | 176 | 3.5 | 8.7 | 0.00 | 0.06 | 0.06 | 91 | 1017.3 |
| 20260903200439 | 69 | 217 | 3.5 | 8.7 | 0.00 | 0.06 | 0.06 | 91 | 1017.4 |
| 20260903195936 | 69 | 212 | 3.5 | 8.7 | 0.00 | 0.06 | 0.06 | 91 | 1017.4 |
| 20260903195435 | 69 | 205 | 3.5 | 7.8 | 0.00 | 0.06 | 0.06 | 91 | 1017.4 |
| 20260903195417 | 69 | 230 | 4.3 | 11.3 | 0.00 | 0.06 | 0.06 | 90 | 1017.4 |
| 20260903195102 | 69 | 199 | 2.6 | 7.8 | 0.00 | 0.06 | 0.06 | 91 | 1017.5 |
| 20260903194719 | 69 | 199 | 4.3 | 11.3 | 0.00 | 0.06 | 0.06 | 90 | 1017.3 |
| 20260903194529 | 69 | 230 | 3.5 | 10.4 | 0.00 | 0.06 | 0.06 | 90 | 1017.5 |
| 20260903192935 | 69 | 177 | 4.3 | 12.2 | 0.00 | 0.06 | 0.06 | 90 | 1017.3 |
| 20260903192439 | 69 | 228 | 4.3 | 12.2 | 0.00 | 0.06 | 0.06 | 90 | 1017.5 |
| 20260903191935 | 70 | 242 | 4.3 | 8.7 | 0.00 | 0.06 | 0.06 | 89 | 1017.4 |
| 20260903191923 | 70 | 208 | 4.3 | 10.4 | 0.00 | 0.06 | 0.06 | 89 | 1017.5 |
| 20260903190941 | 70 | 239 | 4.3 | 10.4 | 0.00 | 0.06 | 0.06 | 89 | 1017.4 |
| 20260903190438 | 70 | 194 | 4.3 | 11.3 | 0.00 | 0.06 | 0.06 | 88 | 1017.4 |
| 20260903185936 | 70 | 222 | 5.2 | 11.3 | 0.00 | 0.06 | 0.06 | 88 | 1017.5 |
| 20260903185435 | 70 | 258 | 5.2 | 12.2 | 0.00 | 0.06 | 0.06 | 88 | 1017.5 |
| 20260903184933 | 70 | 246 | 6.1 | 12.2 | 0.00 | 0.06 | 0.06 | 88 | 1017.5 |
| 20260903184433 | 70 | 234 | 5.2 | 12.2 | 0.00 | 0.06 | 0.06 | 87 | 1017.5 |
| 20260903183932 | 70 | 219 | 5.2 | 11.3 | 0.00 | 0.06 | 0.06 | 87 | 1017.5 |
| 20260903183434 | 70 | 220 | 5.2 | 13.9 | 0.00 | 0.06 | 0.06 | 87 | 1017.5 |
| 20260903182936 | 70 | 220 | 5.2 | 13.9 | 0.00 | 0.06 | 0.06 | 87 | 1017.6 |
| 20260903182520 | 70 | 228 | 5.2 | 13.0 | 0.00 | 0.06 | 0.06 | 87 | 1017.4 |
| 20260903182118 | 70 | 277 | 4.3 | 12.2 | 0.00 | 0.06 | 0.06 | 87 | 1017.5 |
| 20260903182100 | 71 | 217 | 5.2 | 13.0 | 0.00 | 0.06 | 0.06 | 86 | 1017.6 |
| 20260903182001 | 70 | 229 | 5.2 | 12.2 | 0.00 | 0.06 | 0.06 | 87 | 1017.4 |
| 20260903181057 | 70 | 237 | 4.3 | 10.4 | 0.00 | 0.06 | 0.06 | 87 | 1017.6 |
| 20260903180536 | 71 | 184 | 4.3 | 10.4 | 0.00 | 0.06 | 0.06 | 86 | 1017.6 |
| 20260903174935 | 71 | 235 | 5.2 | 12.2 | 0.00 | 0.06 | 0.06 | 86 | 1017.5 |
| 20260903174430 | 71 | 244 | 6.1 | 11.3 | 0.00 | 0.06 | 0.06 | 86 | 1017.6 |
| 20260903173930 | 71 | 194 | 7.0 | 12.2 | 0.00 | 0.06 | 0.06 | 85 | 1017.8 |
| 20260903173432 | 72 | 230 | 7.0 | 13.9 | 0.00 | 0.06 | 0.06 | 85 | 1017.8 |
| 20260903172959 | 71 | 228 | 7.8 | 18.2 | 0.00 | 0.06 | 0.06 | 86 | 1017.8 |
| 20260903172936 | 72 | 262 | 7.0 | 13.9 | 0.00 | 0.06 | 0.06 | 86 | 1017.8 |
| 20260903171931 | 71 | 221 | 7.0 | 18.2 | 0.00 | 0.06 | 0.06 | 85 | 1017.8 |
| 20260903171430 | 71 | 234 | 6.1 | 12.2 | 0.00 | 0.06 | 0.06 | 85 | 1017.8 |
| 20260903171006 | 71 | 219 | 7.0 | 14.8 | 0.00 | 0.06 | 0.06 | 85 | 1017.5 |
| 20260903170941 | 71 | 225 | 7.0 | 13.9 | 0.00 | 0.06 | 0.06 | 85 | 1017.6 |
| 20260903165931 | 71 | 232 | 7.0 | 14.8 | 0.00 | 0.06 | 0.06 | 85 | 1017.5 |
| 20260903165430 | 72 | 219 | 7.8 | 14.8 | 0.00 | 0.06 | 0.06 | 84 | 1017.6 |
| 20260903164931 | 72 | 192 | 7.8 | 16.5 | 0.00 | 0.06 | 0.06 | 84 | 1017.6 |
| 20260903164433 | 72 | 240 | 7.8 | 16.5 | 0.00 | 0.06 | 0.06 | 84 | 1017.6 |
| 20260903163933 | 72 | 187 | 8.7 | 16.5 | 0.00 | 0.06 | 0.06 | 83 | 1017.5 |
| 20260903163433 | 72 | 210 | 8.7 | 16.5 | 0.00 | 0.06 | 0.06 | 83 | 1017.6 |
| 20260903163039 | 72 | 190 | 7.0 | 15.6 | 0.00 | 0.06 | 0.06 | 84 | 1018.0 |
| 20260903163029 | 72 | 233 | 7.0 | 15.6 | 0.00 | 0.06 | 0.06 | 83 | 1018.0 |
| 20260903162945 | 72 | 243 | 7.0 | 15.6 | 0.00 | 0.06 | 0.06 | 84 | 1017.8 |
| 20260903161434 | 72 | 256 | 7.8 | 14.8 | 0.00 | 0.06 | 0.06 | 83 | 1017.9 |
| 20260903160932 | 72 | 220 | 7.8 | 14.8 | 0.00 | 0.06 | 0.06 | 83 | 1017.8 |
| 20260903160537 | 73 | 249 | 8.7 | 19.1 | 0.00 | 0.06 | 0.06 | 81 | 1017.8 |
| 20260903160451 | 73 | 233 | 7.8 | 15.6 | 0.00 | 0.06 | 0.06 | 82 | 1017.5 |
| 20260903160140 | 72 | 222 | 8.7 | 16.5 | 0.00 | 0.06 | 0.06 | 82 | 1017.6 |
| 20260903154931 | 73 | 228 | 7.8 | 19.1 | 0.00 | 0.06 | 0.06 | 81 | 1017.8 |
| 20260903154430 | 73 | 224 | 7.0 | 12.2 | 0.00 | 0.06 | 0.06 | 81 | 1017.9 |
| 20260903153930 | 73 | 234 | 7.8 | 18.2 | 0.00 | 0.06 | 0.06 | 80 | 1017.9 |
| 20260903153432 | 73 | 237 | 7.8 | 18.2 | 0.00 | 0.06 | 0.06 | 80 | 1018.0 |
| 20260903152934 | 73 | 194 | 7.0 | 16.5 | 0.00 | 0.06 | 0.06 | 80 | 1018.0 |
| 20260903152432 | 73 | 201 | 7.8 | 14.8 | 0.00 | 0.06 | 0.06 | 80 | 1017.9 |
| 20260903152425 | 73 | 225 | 7.0 | 14.8 | 0.00 | 0.06 | 0.06 | 79 | 1018.0 |
| 20260903151433 | 74 | 204 | 7.8 | 14.8 | 0.00 | 0.06 | 0.06 | 78 | 1018.0 |
| 20260903150931 | 74 | 231 | 7.8 | 15.6 | 0.00 | 0.06 | 0.06 | 78 | 1018.1 |
| 20260903150432 | 74 | 227 | 8.7 | 15.6 | 0.00 | 0.06 | 0.06 | 78 | 1018.0 |
| 20260903150000 | 73 | 236 | 10.4 | 22.6 | 0.00 | 0.06 | 0.06 | 77 | 1017.9 |
| 20260903145938 | 73 | 241 | 9.6 | 16.5 | 0.00 | 0.06 | 0.06 | 78 | 1017.9 |
| 20260903144931 | 74 | 237 | 11.3 | 22.6 | 0.00 | 0.06 | 0.06 | 77 | 1017.8 |
| 20260903144432 | 73 | 268 | 12.2 | 25.2 | 0.00 | 0.06 | 0.06 | 77 | 1017.9 |
| 20260903143933 | 73 | 190 | 12.2 | 25.2 | 0.00 | 0.06 | 0.06 | 77 | 1017.8 |
| 20260903143432 | 73 | 231 | 11.3 | 21.7 | 0.00 | 0.06 | 0.06 | 79 | 1017.8 |
| 20260903142930 | 73 | 240 | 11.3 | 21.7 | 0.00 | 0.06 | 0.06 | 79 | 1017.8 |
| 20260903142432 | 73 | 199 | 11.3 | 22.6 | 0.00 | 0.06 | 0.06 | 78 | 1017.8 |
| 20260903141934 | 73 | 229 | 12.2 | 22.6 | 0.00 | 0.06 | 0.06 | 78 | 1017.6 |
| 20260903141430 | 74 | 211 | 11.3 | 20.9 | 0.00 | 0.06 | 0.06 | 78 | 1017.8 |
| 20260903140950 | 73 | 233 | 9.6 | 21.7 | 0.00 | 0.06 | 0.06 | 80 | 1017.8 |
| 20260903140933 | 74 | 258 | 9.6 | 19.1 | 0.00 | 0.06 | 0.06 | 79 | 1017.8 |
| 20260903140644 | 73 | 242 | 8.7 | 21.7 | 0.00 | 0.06 | 0.06 | 81 | 1017.9 |
| 20260903135423 | 73 | 197 | 8.7 | 20.9 | 0.00 | 0.06 | 0.06 | 80 | 1017.7 |
| 20260903134919 | 73 | 234 | 10.4 | 18.2 | 0.00 | 0.06 | 0.06 | 81 | 1017.9 |
| 20260903134413 | 73 | 256 | 11.3 | 20.0 | 0.00 | 0.06 | 0.06 | 79 | 1017.9 |
| 20260903133907 | 73 | 243 | 10.4 | 20.0 | 0.00 | 0.06 | 0.06 | 77 | 1017.8 |
| 20260903133518 | 73 | 273 | 9.6 | 20.0 | 0.00 | 0.06 | 0.06 | 77 | 1017.7 |
| 20260903133422 | 73 | 272 | 9.6 | 20.0 | 0.00 | 0.06 | 0.06 | 79 | 1017.8 |